Regional Weather Roundup
Issued by NWS Cleveland, OH

Home | Current Version | Previous Version | Text Only | Print | Product List | Glossary Off
Versions: 1 2 3 4 5 6 7 8 9 10 11 12 13 14 15 16 17 18 19 20 21 22 23 24 25 26 27 28 29 30 31 32 33 34 35 36 37 38 39 40 41 42 43 44 45 46 47 48 49 50

000
ASUS41 KCLE 132312
RWRCLE
OHIO REGIONAL WEATHER ROUNDUP
NATIONAL WEATHER SERVICE WILMINGTON, OH
600 PM EST WED DEC 13 2017

NOTE: "FAIR" INDICATES FEW OR NO CLOUDS BELOW 12,000 FEET WITH NO
SIGNIFICANT WEATHER AND/OR OBSTRUCTIONS TO VISIBILITY.

OHZ001>008-015>018-024>027-034-035-043-044-140000-
   NORTHWEST OHIO

CITY           SKY/WX    TMP DP  RH WIND       PRES   REMARKS
DEFIANCE       LGT SNOW  27  22  81 S13       29.35F WCI  16
FINDLAY        CLOUDY    26  21  81 S16       29.40F WCI  14
TOLEDO EXPRESS LGT SNOW  25  23  92 S5        29.42S FOG     WCI  19
TOLEDO EXEC    LGT SNOW  24  20  84 S12       29.45S FOG     WCI  13
LIMA           LGT SNOW  27  24  89 S14       29.38F FOG     WCI  16
$$

OHZ009>014-019>023-028>033-038-089-140000-
   NORTHEAST OHIO

CITY           SKY/WX    TMP DP  RH WIND       PRES   REMARKS
CLE-HOPKINS    FLURRIES  23  15  71 S14       29.52R WCI  11
CLE-LAKEFRONT  LGT SNOW  22  15  75 SE12G21   29.52R WCI  10
CUY CO. ARPT   LGT SNOW  23  19  86 S14       29.53R WCI  11
LORAIN-ELYRIA  CLOUDY    21  12  68 S16G23    29.48F WCI   7
ASHTABULA      LGT SNOW  20  17  88 SE7       29.51F FOG     WCI  11
AKRON-CANTON   CLOUDY    21  14  74 S16       29.49F WCI   7
WOOSTER        CLOUDY    20  14  77 S13       29.48F WCI   7
MANSFIELD      CLOUDY    23  11  60 S17G24    29.44F WCI   9
YOUNGSTOWN     FLURRIES  20  16  84 SE8       29.49F WCI  10
$$

OHZ042-051>053-060>062-070>072-077>081-140000-
  SOUTHWEST OHIO

CITY           SKY/WX    TMP DP  RH WIND       PRES   REMARKS
CINC-COVINGTON CLOUDY    39  15  37 SW17G23   29.47S
CINC-LUNKEN    CLOUDY    40  15  36 SW13      29.50S
HAMILTON       CLOUDY    39  15  37 SW8       29.48S
DAYTON         CLOUDY    33  22  63 SW12      29.43F WCI  24
WRIGHT-PAT AFB CLOUDY    35  18  50 S13       29.44F WCI  26
DAYTON GENERAL CLOUDY    36  16  44 SW10      29.44F
WILMINGTON     CLOUDY    35  17  47 SW18      29.45S WCI  24
$$

OHZ036-037-039>041-045>050-054>059-063>069-073>076-082>088-140000-
  CENTRAL AND SOUTHEAST OHIO

CITY           SKY/WX    TMP DP  RH WIND       PRES   REMARKS
COLUMBUS       CLOUDY    29  13  51 S8        29.49F WCI  21
OSU AIRPORT    FLURRIES  29  17  61 S15G23    29.48S WCI  18
BOLTON FIELD   CLOUDY    28  14  54 S14       29.49F WCI  17
RICKENBACK AFB CLOUDY    28  13  53 S13       29.51R WCI  18
NEWARK         CLOUDY    28  11  48 S6        29.49F WCI  22
MARION         LGT SNOW  25  19  78 S22       29.46  WCI  10
LANCASTER      MOCLDY    28  13  53 S7        29.50F WCI  21
ZANESVILLE     MOCLDY    27   9  46 SE9       29.50F WCI  18
NEW PHILLY     CLOUDY    22  14  71 VRB5      29.53S WCI  16
$$



USA.gov is the U.S. government's official web portal to all federal, state and local government web resources and services.